{"data":{"norad_id":63164,"intl_designator":"2025-046F","name":"QIANFAN-78","alt_names":[],"object_type":"PAYLOAD","status":"ACTIVE","operator":null,"country":"PRC","launch_date":"2025-03-11","launch_site_code":"WSC","launch_vehicle":null,"mission":null,"orbit_class":"UNKNOWN","rcs_meters":null,"size_class":null,"mass_kg":null,"dimensions":null,"purposes":[],"wikipedia_slug":null,"has_3d_model":false,"image_url":null,"decayed_at":null,"tle_current":{"epoch":"2026-09-22T20:49:27.178752Z","epoch_age_seconds":106264,"freshness":"FRESH","line1":"1 63164U 25046F   26265.86767568  .00000071  00000+0  90790-4 0  9997","line2":"2 63164  88.9641 290.4870 0015948  35.4804 324.7405 13.51012657 85794","mean_motion":13.51012657,"eccentricity":0.0015948,"inclination_deg":88.9641,"raan_deg":290.487,"arg_perigee_deg":35.4804,"mean_anomaly_deg":324.7405,"bstar":9.079e-5,"rev_number":8579,"period_min":106.58671423535,"perigee_km":1056.6591226854,"apogee_km":1080.4110279369,"semimajor_km":7446.6720753111,"source":"CELESTRAK","updated_at":"2026-09-23T09:00:21.847372Z"}}}